Location: Dattensoll
(49.9928°N, 9.8954°E)
Time: 00:19:53
(UTC+00:00)

Lacrosse 5 rocket - Pass Details

Date: 19 May 2025
Orbit: 419 x 515 km, 57.0° (Epoch: 21 June)

Event Time Altitude Azimuth Distance (km) Brightness Sun altitude
Rises 19:46:27 0° 303° (WNW) 2,509 7.0 -6.0°
Reaches altitude 10° 19:48:38 10° 305° (NW) 1,612 5.5 -6.3°
Maximum altitude 19:52:14 76° 31° (NNE) 468 1.0 -6.7°
Drops below altitude 10° 19:55:42 10° 118° (ESE) 1,550 3.0 -7.1°
Enters shadow 19:55:55 - 118° (ESE) 1,636 3.1 -7.2°
